User: anonymous   Login
Location: Pine Mountain Observatory
(43.7910°N, 120.9377°W)
Time: 05:58:51
(UTC-07:00)
Language:

Meteor 2-19 Rocket - Orbit

View from above orbital plane
View from above orbital plane
View from above satellite
View from above satellite

Ground track
Ground track

The orbit data is extracted from the following two-line orbital elements,

1 20671U 90057B   14302.84401171  .00000009  00000-0 -55284-5 0  1253
2 20671 082.5494 056.2529 0016403 135.1142 338.3719 13.84579137230030
Epoch (UTC): 29 October 2014 20:15:22
Eccentricity: 0.0016403
inclination: 82.5494°
perigee height: 935 km
apogee height: 960 km
right ascension of ascending node: 56.2529°
argument of perigee: 135.1142°
revolutions per day: 13.84579137
mean anomaly at epoch: 338.3719°
orbit number at epoch: 23003

The dashed part of the orbit path shows where the satellite is in the earth's shadow,  

DLR